GW1000 Weather Reports


Display with metric or nautical units.
time (UTC)temp
F
wind
direction
speed
MPH
gust
MPH
rain 1hr
in
rain 24hr
in
rain mn
in
humidity
%
barometer
mb
20260904065720 83 106 1.0 3.0 0.00 0.00 0.00 69 1006.0
20260904065217 81 240 5.0 7.0 0.00 0.00 0.00 69 1006.1
20260904064716 81 247 3.0 7.0 0.00 0.00 0.00 71 1006.3
20260904064212 82 225 6.0 8.0 0.00 0.00 0.00 69 1006.1
20260904063708 83 309 5.0 6.0 0.00 0.00 0.00 69 1006.0
20260904063204 82 253 3.0 7.0 0.00 0.00 0.00 69 1006.0
20260904062700 82 254 3.0 5.0 0.00 0.00 0.00 70 1005.8
20260904062155 82 197 3.0 5.0 0.00 0.00 0.00 70 1006.0
20260904061650 81 170 1.0 5.0 0.00 0.00 0.00 72 1006.0
20260904061147 80 252 3.0 7.0 0.00 0.00 0.00 73 1005.9
20260904060643 80 227 3.0 5.0 0.00 0.00 0.00 73 1005.9
20260904060138 81 240 4.0 9.0 0.00 0.00 0.00 73 1005.9
20260904055633 80 270 1.0 6.0 0.00 0.00 0.00 74 1006.0
20260904055128 80 185 4.0 7.0 0.00 0.00 0.00 74 1005.9
20260904054624 80 345 3.0 6.0 0.00 0.00 0.00 75 1005.9
20260904054120 80 269 3.0 8.0 0.00 0.00 0.00 75 1005.8
20260904053614 79 227 2.0 3.0 0.00 0.00 0.00 76 1005.7
20260904053109 79 248 4.0 8.0 0.00 0.00 0.00 76 1005.7
20260904052606 79 200 3.0 6.0 0.00 0.00 0.00 77 1005.8
20260904052101 79 248 5.0 8.0 0.00 0.00 0.00 77 1005.6
20260904051558 79 75 2.0 6.0 0.00 0.00 0.00 78 1005.8
20260904051057 79 208 5.0 7.0 0.00 0.00 0.00 79 1005.7
20260904050553 78 149 4.0 7.0 0.00 0.00 0.00 80 1005.7
20260904050049 78 212 4.0 6.0 0.00 0.00 0.00 80 1005.7
20260904045544 77 223 3.0 5.0 0.00 0.00 0.00 81 1005.7
20260904045043 77 189 2.0 3.0 0.00 0.00 0.00 82 1005.7
20260904044539 77 39 0.0 0.0 0.00 0.00 0.00 84 1005.6
20260904044035 75 97 1.0 2.0 0.00 0.00 0.00 85 1005.7
20260904043532 75 76 2.0 2.0 0.00 0.00 0.00 85 1005.9
20260904043027 74 79 1.0 1.0 0.00 0.00 0.00 86 1005.7
20260904042524 74 55 0.0 1.0 0.00 0.00 0.00 86 1005.7
20260904042019 74 50 0.0 0.0 0.00 0.00 0.00 86 1005.6
20260904041515 73 39 0.0 0.0 0.00 0.00 0.00 86 1005.7
20260904041011 73 31 0.0 0.0 0.00 0.00 0.00 86 1005.8
20260904040510 73 44 0.0 0.0 0.00 0.00 0.00 86 1005.4
20260904040008 73 39 0.0 0.0 0.00 0.00 0.00 86 1005.7
20260904035502 73 43 0.0 0.0 0.00 0.00 0.00 86 1005.5
20260904035001 73 48 0.0 1.0 0.00 0.00 0.00 86 1005.5
20260904034456 73 42 1.0 1.0 0.00 0.00 0.00 86 1005.7
20260904033952 73 60 2.0 3.0 0.00 0.00 0.00 86 1005.7
20260904033448 73 65 0.0 2.0 0.00 0.00 0.00 86 1005.5
20260904032944 73 99 3.0 3.0 0.00 0.00 0.00 86 1005.1
20260904032439 73 102 1.0 3.0 0.00 0.00 0.00 86 1005.3
20260904031939 73 74 1.0 3.0 0.00 0.00 0.00 86 1005.1
20260904031434 73 76 1.0 2.0 0.00 0.00 0.00 86 1005.1
20260904030930 73 34 0.0 0.0 0.00 0.00 0.00 86 1005.1
20260904030425 73 37 0.0 0.0 0.00 0.00 0.00 86 1005.1
20260904025920 74 34 0.0 0.0 0.00 0.00 0.00 86 1005.1
20260904025417 74 34 0.0 0.0 0.00 0.00 0.00 85 1005.1
20260904024916 74 49 0.0 0.0 0.00 0.00 0.00 86 1005.1
20260904024412 74 41 0.0 1.0 0.00 0.00 0.00 85 1005.0
20260904023908 74 358 1.0 2.0 0.00 0.00 0.00 85 1005.1
20260904023404 74 29 0.0 0.0 0.00 0.00 0.00 85 1005.2
20260904022902 75 65 1.0 3.0 0.00 0.00 0.00 86 1005.1
20260904022400 74 72 0.0 0.0 0.00 0.00 0.00 85 1005.0
20260904021856 74 225 1.0 2.0 0.00 0.00 0.00 85 1005.1
20260904021351 75 215 2.0 2.0 0.00 0.00 0.00 86 1005.1
20260904020846 75 14 0.0 1.0 0.00 0.00 0.00 85 1005.1
20260904020341 74 166 1.0 1.0 0.00 0.00 0.00 85 1005.0
20260904015840 74 190 0.0 0.0 0.00 0.00 0.00 85 1004.9
20260904015336 75 30 0.0 0.0 0.00 0.00 0.00 85 1005.0
20260904014834 75 28 0.0 0.0 0.00 0.00 0.00 85 1005.0
20260904014329 74 123 0.0 0.0 0.00 0.00 0.00 85 1005.0
20260904013825 75 22 0.0 0.0 0.00 0.00 0.00 84 1005.0
20260904013321 75 32 0.0 0.0 0.00 0.00 0.00 84 1005.0
20260904012817 75 115 0.0 0.0 0.00 0.00 0.00 84 1005.0
20260904012311 75 24 0.0 0.0 0.00 0.00 0.00 84 1005.0
20260904011810 75 25 0.0 0.0 0.00 0.00 0.00 84 1005.0
20260904011305 75 16 0.0 1.0 0.00 0.00 0.00 84 1004.9
20260904010800 75 16 0.0 1.0 0.00 0.00 0.00 83 1005.1
20260904010256 76 92 0.0 2.0 0.00 0.00 0.00 84 1004.9
20260904005751 76 210 1.0 3.0 0.00 0.00 0.00 83 1004.9
20260904005247 76 147 1.0 2.0 0.00 0.00 0.00 83 1005.0
20260904004742 76 33 1.0 2.0 0.00 0.00 0.00 83 1004.9
20260904004238 76 131 0.0 2.0 0.00 0.00 0.00 83 1004.7
20260904003732 76 187 3.0 3.0 0.00 0.00 0.00 83 1004.9
20260904003229 76 50 0.0 2.0 0.00 0.00 0.00 83 1004.9
20260904002724 76 347 0.0 2.0 0.00 0.00 0.00 82 1004.9
20260904002220 77 213 3.0 3.0 0.00 0.00 0.00 83 1004.8
20260904001714 77 209 3.0 3.0 0.00 0.00 0.00 82 1004.7
20260904001214 77 153 2.0 3.0 0.00 0.00 0.00 82 1005.0
20260904000709 76 247 3.0 3.0 0.00 0.00 0.00 82 1004.8
20260904000204 77 140 2.0 2.0 0.00 0.00 0.00 82 1004.8
20260903235703 77 132 1.0 3.0 0.00 0.00 0.00 82 1004.8
20260903235200 77 191 2.0 3.0 0.00 0.00 0.00 82 1005.1
20260903234654 77 201 2.0 3.0 0.00 0.00 0.00 82 1005.0
20260903234151 76 128 1.0 2.0 0.00 0.00 0.00 82 1004.7
20260903233646 76 34 1.0 2.0 0.00 0.00 0.00 82 1005.0
20260903233142 76 308 1.0 1.0 0.00 0.00 0.00 82 1005.0
20260903232636 76 116 0.0 1.0 0.00 0.00 0.00 82 1004.8
20260903232132 76 133 0.0 0.0 0.00 0.00 0.00 81 1005.0
20260903231632 76 133 0.0 0.0 0.00 0.00 0.00 81 1004.8
20260903231131 77 134 0.0 0.0 0.00 0.00 0.00 81 1005.0
20260903230627 77 138 0.0 1.0 0.00 0.00 0.00 81 1005.0
20260903230126 77 220 1.0 1.0 0.00 0.00 0.00 80 1005.1
20260903225624 77 336 0.0 1.0 0.00 0.00 0.00 80 1005.1
20260903225120 77 10 0.0 1.0 0.00 0.00 0.00 80 1005.2
20260903224616 77 230 1.0 1.0 0.00 0.00 0.00 80 1005.3
20260903224112 78 191 0.0 1.0 0.00 0.00 0.00 79 1005.3
20260903223607 78 30 0.0 1.0 0.00 0.00 0.00 79 1005.2
20260903223105 78 0 0.0 1.0 0.00 0.00 0.00 79 1005.1
20260903222600 78 67 0.0 1.0 0.00 0.00 0.00 79 1005.2
20260903222059 78 259 2.0 2.0 0.00 0.00 0.00 79 1005.3
20260903221555 78 243 3.0 3.0 0.00 0.00 0.00 78 1005.5
20260903221052 78 196 2.0 2.0 0.00 0.00 0.00 78 1005.3
20260903220551 78 252 1.0 3.0 0.00 0.00 0.00 78 1005.4
20260903220051 78 253 1.0 2.0 0.00 0.00 0.00 79 1005.4
20260903215550 78 227 2.0 3.0 0.00 0.00 0.00 79 1005.4
20260903215049 78 214 2.0 2.0 0.00 0.00 0.00 79 1005.2
20260903214544 79 227 1.0 2.0 0.00 0.00 0.00 79 1005.4
20260903214039 79 292 3.0 3.0 0.00 0.00 0.00 79 1005.3
20260903213534 79 242 1.0 2.0 0.00 0.00 0.00 79 1005.5
20260903213030 79 30 0.0 1.0 0.00 0.00 0.00 79 1005.4
20260903212526 79 347 0.0 1.0 0.00 0.00 0.00 79 1005.6
20260903212021 79 347 1.0 3.0 0.00 0.00 0.00 79 1005.6
20260903211516 79 351 1.0 2.0 0.00 0.00 0.00 79 1005.6
20260903211013 79 249 2.0 3.0 0.00 0.00 0.00 79 1005.6
20260903210513 79 294 2.0 3.0 0.00 0.00 0.00 79 1005.7
20260903210008 79 262 2.0 2.0 0.00 0.00 0.00 79 1005.6
20260903205502 79 283 1.0 2.0 0.00 0.00 0.00 79 1005.5
20260903204956 79 316 2.0 2.0 0.00 0.00 0.00 78 1005.4
20260903204453 79 277 2.0 3.0 0.00 0.00 0.00 79 1005.6
20260903203948 79 303 2.0 2.0 0.00 0.00 0.00 79 1005.6
20260903203444 79 326 1.0 2.0 0.00 0.00 0.00 79 1005.5
20260903202942 79 295 2.0 2.0 0.00 0.00 0.00 79 1005.5
20260903202438 79 286 3.0 3.0 0.00 0.00 0.00 79 1005.6
20260903201933 80 285 2.0 2.0 0.00 0.00 0.00 79 1005.4
20260903201429 80 280 1.0 2.0 0.00 0.00 0.00 79 1005.7
20260903200927 79 292 2.0 2.0 0.00 0.00 0.00 79 1005.6
20260903200422 79 266 2.0 2.0 0.00 0.00 0.00 79 1005.6
20260903195917 79 359 0.0 0.0 0.00 0.00 0.00 79 1005.6
20260903195414 79 8 0.0 1.0 0.00 0.00 0.00 79 1005.7
20260903194908 80 358 0.0 1.0 0.00 0.00 0.00 79 1005.6
20260903194404 80 291 1.0 2.0 0.00 0.00 0.00 79 1005.6
20260903193859 80 258 2.0 2.0 0.00 0.00 0.00 79 1005.5
20260903193355 80 315 1.0 2.0 0.00 0.00 0.00 79 1005.5
20260903192844 79 311 1.0 2.0 0.00 0.00 0.00 79 1005.5
20260903192340 80 326 1.0 2.0 0.00 0.00 0.00 79 1005.6
20260903191836 80 356 1.0 2.0 0.00 0.00 0.00 79 1005.5
20260903191332 80 319 2.0 2.0 0.00 0.00 0.00 79 1005.5
20260903190830 80 4 1.0 2.0 0.00 0.00 0.00 79 1005.5
20260903190326 80 299 1.0 2.0 0.00 0.00 0.00 79 1005.5
20260903185820 80 313 2.0 2.0 0.00 0.00 0.00 79 1005.5
20260903185315 80 267 2.0 2.0 0.00 0.00 0.00 79 1005.8
20260903184811 80 256 2.0 3.0 0.00 0.00 0.00 79 1005.5
20260903184308 80 256 2.0 2.0 0.00 0.00 0.00 79 1005.6
20260903183802 80 271 2.0 2.0 0.00 0.00 0.00 79 1005.6
20260903183256 80 274 1.0 2.0 0.00 0.00 0.00 79 1005.7
20260903182755 80 266 2.0 2.0 0.00 0.00 0.00 79 1005.7
20260903182250 80 335 1.0 2.0 0.00 0.00 0.00 79 1005.4
20260903181749 80 256 1.0 2.0 0.00 0.00 0.00 79 1005.5
20260903181244 80 4 1.0 1.0 0.00 0.00 0.00 79 1005.5
20260903180740 80 342 2.0 2.0 0.00 0.00 0.00 79 1005.4
20260903180238 80 352 1.0 1.0 0.00 0.00 0.00 79 1005.6
20260903175733 80 357 1.0 2.0 0.00 0.00 0.00 79 1005.4
20260903175232 80 356 1.0 3.0 0.00 0.00 0.00 79 1005.4
20260903174731 80 1 2.0 3.0 0.00 0.00 0.00 78 1005.4
20260903174227 80 351 2.0 3.0 0.00 0.00 0.00 78 1005.5
20260903173722 80 316 2.0 5.0 0.00 0.00 0.00 78 1005.3
20260903173217 80 332 1.0 1.0 0.00 0.00 0.00 78 1005.2
20260903172712 81 325 1.0 3.0 0.00 0.00 0.00 78 1005.3
20260903172207 81 346 1.0 3.0 0.00 0.00 0.00 78 1005.3
20260903171702 81 335 2.0 3.0 0.00 0.00 0.00 77 1005.0
20260903171159 81 307 3.0 5.0 0.00 0.00 0.00 77 1004.8
20260903170657 81 324 2.0 3.0 0.00 0.00 0.00 77 1004.9
20260903170153 81 352 1.0 3.0 0.00 0.00 0.00 77 1004.9
20260903165650 81 335 4.0 5.0 0.00 0.00 0.00 77 1004.7
20260903165146 82 351 3.0 3.0 0.00 0.00 0.00 76 1004.6
20260903164645 82 295 5.0 7.0 0.00 0.00 0.00 76 1004.8
20260903164136 82 349 3.0 5.0 0.00 0.00 0.00 76 1004.7
20260903163630 82 320 5.0 6.0 0.00 0.00 0.00 75 1004.7
20260903163127 82 6 4.0 5.0 0.00 0.00 0.00 75 1004.6
20260903162623 82 5 5.0 6.0 0.00 0.00 0.00 75 1004.6
20260903162118 82 280 4.0 6.0 0.00 0.00 0.00 74 1004.5
20260903161613 82 290 6.0 8.0 0.00 0.00 0.00 74 1004.6
20260903161108 83 358 4.0 7.0 0.00 0.00 0.00 74 1004.5
20260903160603 83 326 3.0 7.0 0.00 0.00 0.00 73 1004.5
20260903160057 83 6 3.0 6.0 0.00 0.00 0.00 72 1004.4
20260903155556 84 295 3.0 5.0 0.00 0.00 0.00 72 1004.3
20260903155051 84 27 4.0 6.0 0.00 0.00 0.00 72 1004.4
20260903154548 84 4 5.0 9.0 0.00 0.00 0.00 71 1004.3
20260903154044 84 326 7.0 8.0 0.00 0.00 0.00 70 1004.5
20260903153539 84 359 4.0 5.0 0.00 0.00 0.00 70 1004.4
20260903153035 85 334 8.0 9.0 0.00 0.00 0.00 69 1004.1
20260903152530 85 311 5.0 7.0 0.00 0.00 0.00 68 1004.1
20260903152027 85 256 6.0 8.0 0.00 0.00 0.00 67 1004.5
20260903151525 86 352 4.0 7.0 0.00 0.00 0.00 67 1004.2
20260903151021 86 279 5.0 6.0 0.00 0.00 0.00 66 1004.2
20260903150521 86 313 3.0 6.0 0.00 0.00 0.00 66 1004.3
20260903150016 86 301 6.0 10.0 0.00 0.00 0.00 63 1004.4
20260903145510 86 243 5.0 7.0 0.00 0.00 0.00 62 1004.1
20260903145006 87 270 8.0 9.0 0.00 0.00 0.00 61 1004.4
20260903144505 86 317 5.0 8.0 0.00 0.00 0.00 61 1004.3
20260903144001 86 256 5.0 5.0 0.00 0.00 0.00 61 1004.3
20260903143457 86 277 4.0 6.0 0.00 0.00 0.00 60 1004.1
20260903142953 86 23 5.0 7.0 0.00 0.00 0.00 60 1004.1
20260903142448 86 297 6.0 10.0 0.00 0.00 0.00 61 1004.2
20260903141944 86 333 8.0 11.0 0.00 0.00 0.00 61 1004.2
20260903141439 87 344 10.0 15.0 0.00 0.00 0.00 61 1004.1
20260903140935 87 271 5.0 8.0 0.00 0.00 0.00 62 1004.1
20260903140430 87 341 5.0 10.0 0.00 0.00 0.00 62 1004.2
20260903135925 87 346 8.0 10.0 0.00 0.00 0.00 63 1003.9
20260903135421 87 336 7.0 11.0 0.00 0.00 0.00 63 1004.0
20260903134920 86 270 6.0 11.0 0.00 0.00 0.00 62 1004.1
20260903134414 87 349 9.0 14.0 0.00 0.00 0.00 63 1004.0
20260903133912 87 352 11.0 13.0 0.00 0.00 0.00 62 1003.9
20260903133408 87 275 5.0 8.0 0.00 0.00 0.00 62 1004.2
20260903132903 87 309 9.0 14.0 0.00 0.00 0.00 62 1004.0
20260903132359 88 292 5.0 7.0 0.00 0.00 0.00 60 1003.8
20260903131858 88 254 6.0 10.0 0.00 0.00 0.00 60 1004.0
20260903131353 88 280 7.0 8.0 0.00 0.00 0.00 59 1003.9
20260903130852 88 351 7.0 8.0 0.00 0.00 0.00 59 1004.0
20260903130347 89 342 7.0 9.0 0.00 0.00 0.00 57 1003.9
20260903125846 88 260 8.0 16.0 0.00 0.00 0.00 59 1004.1
20260903125341 88 325 7.0 10.0 0.00 0.00 0.00 59 1004.0
20260903124840 89 270 12.0 13.0 0.00 0.00 0.00 58 1004.1
20260903124336 89 268 6.0 9.0 0.00 0.00 0.00 56 1004.0
20260903123834 89 277 3.0 7.0 0.00 0.00 0.00 58 1004.1
20260903123329 89 339 3.0 6.0 0.00 0.00 0.00 57 1003.9
20260903122828 88 341 9.0 11.0 0.00 0.00 0.00 59 1004.0
20260903122323 89 278 4.0 8.0 0.00 0.00 0.00 58 1003.9
20260903121822 88 258 11.0 11.0 0.00 0.00 0.00 58 1004.0
20260903121317 88 241 8.0 13.0 0.00 0.00 0.00 60 1004.2
20260903120812 88 316 11.0 15.0 0.00 0.00 0.00 60 1004.2
20260903120306 89 251 4.0 11.0 0.00 0.00 0.00 60 1004.3
20260903115805 89 357 9.0 11.0 0.00 0.00 0.00 60 1004.4
20260903115300 89 279 6.0 7.0 0.00 0.00 0.00 59 1004.1
20260903114800 89 344 4.0 10.0 0.00 0.00 0.00 61 1004.4
20260903114255 89 235 7.0 10.0 0.00 0.00 0.00 60 1004.3
20260903113750 89 337 5.0 13.0 0.00 0.00 0.00 61 1004.4
20260903113246 88 272 5.0 9.0 0.00 0.00 0.00 62 1004.2
20260903112742 89 309 11.0 20.0 0.00 0.00 0.00 61 1004.3
20260903112238 89 246 9.0 11.0 0.00 0.00 0.00 60 1004.3
20260903111736 89 354 4.0 8.0 0.00 0.00 0.00 60 1004.2
20260903111231 89 299 3.0 15.0 0.00 0.00 0.00 59 1004.5
20260903110728 89 257 5.0 14.0 0.00 0.00 0.00 59 1004.3
20260903110223 89 277 9.0 14.0 0.00 0.00 0.00 59 1004.4
20260903105723 89 327 7.0 13.0 0.00 0.00 0.00 60 1004.7
20260903105218 90 302 7.0 10.0 0.00 0.00 0.00 58 1004.6
20260903104717 89 333 3.0 13.0 0.00 0.00 0.00 58 1004.6
20260903104213 89 354 7.0 14.0 0.00 0.00 0.00 59 1004.8
20260903103708 89 20 5.0 7.0 0.00 0.00 0.00 59 1004.7
20260903103204 89 264 3.0 11.0 0.00 0.00 0.00 59 1004.5
20260903102700 89 272 10.0 10.0 0.00 0.00 0.00 58 1004.6
20260903102154 88 292 7.0 9.0 0.00 0.00 0.00 60 1004.7
20260903101653 89 2 6.0 13.0 0.00 0.00 0.00 59 1004.6
20260903101149 89 225 5.0 7.0 0.00 0.00 0.00 59 1004.7
20260903100643 90 280 8.0 13.0 0.00 0.00 0.00 57 1004.9
20260903100143 89 260 12.0 14.0 0.00 0.00 0.00 58 1004.9
20260903095641 89 277 11.0 14.0 0.00 0.00 0.00 57 1004.9
20260903095141 89 269 8.0 14.0 0.00 0.00 0.00 57 1004.7
20260903094636 89 249 8.0 13.0 0.00 0.00 0.00 57 1005.0
20260903094131 89 309 7.0 10.0 0.00 0.00 0.00 57 1004.9
20260903093626 88 331 4.0 10.0 0.00 0.00 0.00 58 1005.2
20260903093121 88 284 9.0 14.0 0.00 0.00 0.00 59 1004.9
20260903092621 89 249 3.0 7.0 0.00 0.00 0.00 59 1004.8
20260903092116 89 233 4.0 11.0 0.00 0.00 0.00 59 1005.0
20260903091614 88 281 8.0 10.0 0.00 0.00 0.00 59 1005.1
20260903091109 89 228 5.0 14.0 0.00 0.00 0.00 60 1005.2
20260903090605 89 246 5.0 9.0 0.00 0.00 0.00 60 1005.0
20260903085602 89 336 5.0 7.0 0.00 0.00 0.00 59 1005.1
20260903085058 88 256 2.0 5.0 0.00 0.00 0.00 62 1005.1
20260903084556 87 250 7.0 10.0 0.00 0.00 0.00 62 1005.2
20260903084050 87 276 7.0 10.0 0.00 0.00 0.00 62 1005.4
20260903083547 89 246 6.0 10.0 0.00 0.00 0.00 60 1005.4
20260903083046 87 273 1.0 3.0 0.00 0.00 0.00 62 1005.3
20260903082540 87 200 5.0 6.0 0.00 0.00 0.00 62 1005.4
20260903082036 87 273 3.0 6.0 0.00 0.00 0.00 62 1005.3
20260903081531 88 282 6.0 7.0 0.00 0.00 0.00 62 1005.4
20260903081027 88 267 2.0 5.0 0.00 0.00 0.00 61 1005.4
20260903080523 87 282 3.0 5.0 0.00 0.00 0.00 61 1005.8
20260903080020 86 308 3.0 5.0 0.00 0.00 0.00 63 1005.6
20260903075514 86 277 2.0 7.0 0.00 0.00 0.00 64 1005.7
20260903075009 86 15 3.0 3.0 0.00 0.00 0.00 63 1005.5
20260903074509 87 274 6.0 7.0 0.00 0.00 0.00 62 1005.5
20260903074003 86 350 2.0 2.0 0.00 0.00 0.00 61 1005.8
20260903073458 85 346 4.0 7.0 0.00 0.00 0.00 63 1005.8
20260903072954 85 292 7.0 7.0 0.00 0.00 0.00 63 1005.8
20260903072450 86 132 0.0 5.0 0.00 0.00 0.00 64 1005.8
20260903071947 85 322 2.0 6.0 0.00 0.00 0.00 65 1005.7
20260903071442 84 353 3.0 6.0 0.00 0.00 0.00 66 1005.7
20260903070938 84 302 3.0 5.0 0.00 0.00 0.00 68 1005.8
20260903070432 85 295 5.0 8.0 0.00 0.00 0.00 68 1005.9